Regional Weather Roundup
Issued by NWS Upton, NY

Current Version | Previous Version | Graphics & Text | Print | Product List | Glossary Off
Versions: 1 2 3 4 5 6 7 8 9 10 11 12 13 14 15 16 17 18 19 20 21 22 23 24 25 26 27

000
ASUS41 KOKX 220209
RWROKX

REGIONAL WEATHER ROUNDUP
NATIONAL WEATHER SERVICE NEW YORK NY
1000 PM EDT SUN MAY 21 2017

NOTE: "FAIR" INDICATES FEW OR NO CLOUDS BELOW 12,000 FEET WITH NO
SIGNIFICANT WEATHER AND/OR OBSTRUCTIONS TO VISIBILITY.

NYZ071-072-176-178-NJZ106-104-220300-
NEW YORK CITY METRO AREA

CITY           SKY/WX    TMP DP  RH WIND       PRES   REMARKS
Central Park   CLOUDY    57  40  52 S8        30.30S
Wall St Helipt CLOUDY    58  43  57 SE6       30.29S
Bronx Bot Gard   N/A     57  37  47 SW2       30.30S
LaGuardia APRT CLOUDY    61  38  42 S9        30.27S
Kennedy INTL   CLOUDY    57  44  62 SE9       30.29S
Breezy Point     N/A     54 N/A N/A SE10        N/A
Newark/Liberty CLOUDY    57  44  62 SE9       30.28S
Teterboro      CLOUDY    59  38  45 S8        30.27R
$$

NYZ177-179-078>081-220300-
LONG ISLAND NEW YORK

CITY           SKY/WX    TMP DP  RH WIND       PRES   REMARKS
Jones Beach      N/A     55 N/A N/A S9          N/A
Matinecock PT    N/A     57 N/A N/A S2          N/A
Farmingdale    CLOUDY    55  40  56 S9        30.28F
MacArthur/ISP  CLOUDY    55  39  54 S7        30.29S
Shirley        CLOUDY    54  43  66 VRB3      30.30S
Mt Sinai Harb    N/A     55 N/A N/A S5          N/A
Westhampton    PTCLDY    49  40  71 CALM      30.31F
East Hampton     N/A     50  42  73 CALM      30.29F
Montauk          N/A     55  46  71 CALM      30.32R
$$

NYZ052-065-067-220300-
HUDSON VALLEY

CITY           SKY/WX    TMP DP  RH WIND       PRES   REMARKS
White Plains   CLOUDY    56  35  45 SE7       30.27S
Larchmont Harb   N/A     55 N/A N/A S7          N/A
Croton O-T Hud   N/A     59 N/A N/A SE6         N/A
Newburgh       CLOUDY    59  36  41 S12       30.27R
Montgomery     CLOUDY    59  34  39 S9        30.25R
Poughkeepsie   CLOUDY    60  33  36 S8        30.25R
Albany         CLOUDY    64  33  31 S18G25    30.18S
$$

NJZ001-105-106-008-010-013-015-019>022-104-220300-
NEW JERSEY

CITY           SKY/WX    TMP DP  RH WIND       PRES   REMARKS
Newark/Liberty CLOUDY    57  44  62 SE9       30.28S
Teterboro      CLOUDY    59  38  45 S8        30.27R
Caldwell       CLOUDY    60  39  45 VRB5      30.28R
Somerville     CLOUDY    59  39  47 SE5       30.25R
Linden           N/A     57  43  59 S7        30.28S
Perth Amboy      N/A     55 N/A N/A SE8         N/A
Sussex         CLOUDY    59  39  47 VRB5      30.26R
Andover          N/A     59  34  39 VRB7      30.26R
Trenton        CLOUDY    58  45  62 SE12      30.27R
Millville      MOCLDY    56  52  86 E6        30.26R
Atlantic City  CLOUDY    56  49  77 E7        30.26F
Wrightstown    CLOUDY    55  47  73 SE6       30.25S
Toms River     CLOUDY    56  48  74 E3        30.28S
Belmar         CLOUDY    55  46  71 SE8       30.29S
$$

PAZ047>061-062-071-220300-
EASTERN PENNSYLVANIA

CITY           SKY/WX    TMP DP  RH WIND       PRES   REMARKS
Philadelphia   CLOUDY    59  48  67 SE10      30.26S
Allentown      CLOUDY    63  36  36 SE6       30.23S
Scranton       CLOUDY    62  37  39 VRB5      30.19S
$$

CTZ002-004>006-009-010-012-RIZ004-006-007-MAZ004-011-015-220300-
SOUTHERN NEW ENGLAND
 IN CT

CITY           SKY/WX    TMP DP  RH WIND       PRES   REMARKS
Bradley INTL   CLOUDY    59  34  39 S10       30.27R
Hartford       CLOUDY    58  37  45 S7        30.28S
Danbury        CLOUDY    56  34  43 S5        30.28S
Wtrbury/Oxford   N/A     55  34  44 S6        30.29F
Bridgeport     CLOUDY    59  40  49 S7        30.29S
Meriden        CLOUDY    56  38  50 S3        30.28F
New Haven      CLOUDY    56  40  55 S7        30.29S
Chester          N/A     54  39  58 S6        30.29F
Groton         PTCLDY    55  42  61 SW7       30.30R
Wilimantic     CLOUDY    59  36  42 S5        30.29S

 IN RI

CITY           SKY/WX    TMP DP  RH WIND       PRES   REMARKS
Providence     MOCLDY    55  36  48 SW8       30.31R
Block Island   PTCLDY    53  48  83 S3        30.31S
Westerly       PTCLDY    56  45  66 VRB3      30.31S
 IN MA

CITY           SKY/WX    TMP DP  RH WIND       PRES   REMARKS
Boston         MOCLDY    58  41  53 S8        30.29S
Worcester      NOT AVBL
Westfield      CLOUDY    59  37  44 S10       30.25R
Provincetown   CLEAR     53  43  68 S7        30.31R
Nantucket      CLEAR     46  34  62 SW6       30.31S
$$

ANZ330-335-338-340-345-350-353-355-220300-
COASTAL MARINE OBSERVATIONS


STATION/POSITION TIME  SKY/WX   TEMP    WIND        PRES    VSBY  WAVE
                                AIR SEA DIR/SP/G                  HT/PER
                 (UTC)          (F)     (DEG/KT/KT) (MB)    (MI)  (FT/S)
NY HARB ENTRANCE 0050            56 56  130/ 10/ 12 1025.6          2/ 6
20 S FIRE ISLAND 0150            54 54  130/ 10/ 12 1025.1          2/ 6
GREAT SOUTH BAY  0115            56 66  160/  8/ 10   N/A
23 SSW MONTAUK P 0150            54 55              1026.6          1/ 5
15 E BARNEGAT LI 0130               56                N/A           3/ 6
HUDSON CANYON    0050            54 53   90/  8/  8 1025.8          3/ 6
KINGS POINT      0124            56 59  190/ 12/ 15 1025.1
EXECUTION ROCKS  0145            58                   N/A
CENTRAL LI SOUND 0115            57     190/  8/ 10   N/A           1/ 2
EASTERN LI SOUND NOT AVBL
ROBBINS REEF     0124            56     150/ 13/ 15 1025.8
$$


>>>>>>>>>>>>>>>>>>>>>>>>>>>> KEY <<<<<<<<<<<<<<<<<<<<<<<<<<<
>                                                          <
>     SKY/WX - Sky Condition/Present Weather               <
>     TMP    - Temperature in Fahrenheit                   <
>     DP     - Dew Point in Fahrenheit                     <
>     RH     - Relative Humidity in Percent                <
>     WIND   - Direction (from) and Speed in MPH           <
>     PRES   - Mean Sea Level Pressure (inches of Hg)      <
>     WCI    - Wind Chill Index                            <
>     VSB    - VISIBILITY IN MILES                         <
>     HX     - HEAT INDEX                                  <
>     TC     - TEMPERATURE IN CELSIUS                      <
>     VRB    - VARIABLE WIND DIRECTION                     <
>                                                          <
>>>>>>>>>>>>>>>>>>>>>>>>>>>> KEY <<<<<<<<<<<<<<<<<<<<<<<<<<<




USA.gov is the U.S. government's official web portal to all federal, state and local government web resources and services.